Regional Weather Roundup
Issued by NWS

Home | Current Version | Previous Version | Text Only | Print | Product List | Glossary Off
Versions: 1 2 3 4 5 6 7 8 9 10 11 12 13 14 15 16 17 18 19 20 21 22 23 24 25 26 27 28 29 30 31 32 33 34 35 36 37 38 39 40 41 42 43 44 45 46 47 48 49 50

000
ASUS45 KSLC 252110
RWRUT

UTAH REGIONAL WEATHER ROUNDUP
NATIONAL WEATHER SERVICE SALT LAKE CITY UT
200 PM MST SUN JAN 25 2015

UTZ001>011-023>025-252200-

NORTHERN UTAH

CITY           SKY/WX    TMP DP  RH WIND       PRES   REMARKS
BRIGHAM CITY   SUNNY     46  29  51 CALM      30.45F
HILL AFB       SUNNY     47  23  38 W3        30.42F
LOGAN          PTSUNNY   41  31  67 N5        30.44F
OGDEN          SUNNY     48  30  49 W5        30.43F
PROVO AIRPORT  MOSUNNY   45  28  53 SW6       30.43F
SALT LAKE CITY MOSUNNY   51  31  46 CALM      30.42F
VERNAL         MOSUNNY   42  21  43 CALM      30.36F
WENDOVER       SUNNY     41  30  65 SE6       30.43F
HEBER CITY     SUNNY     41  30  65 W3        30.41F
WEST JORDAN    SUNNY     50  34  53 CALM      30.43F

$$

UTZ012>022-026-027-252200-

SOUTHERN/CENTRAL UTAH

CITY           SKY/WX    TMP DP  RH WIND       PRES   REMARKS
BLANDING       SUNNY     57  24  28 NE14      30.36F
BRYCE CANYON   SUNNY     50  30  46 NE13      30.37F
CEDAR CITY     SUNNY     52  30  43 N10       30.34F
DELTA          SUNNY     50  32  50 N6        30.40F
MILFORD        SUNNY     51  31  46 N8        30.38F
MOAB/CYNLANDS  SUNNY     46  21  37 N6        30.33F
PRICE          SUNNY     48  22  35 E5        30.34F
ST GEORGE      CLEAR     63  30  29 CALM      30.26F
KANAB          SUNNY     61  27  27 E14       30.30F

$$

REGIONAL REPORTS     COLORADO/ARIZONA

CITY           SKY/WX    TMP DP  RH WIND       PRES   REMARKS
CRAIG, CO      MOSUNNY   42  27  55 NE7       30.34F
GRAND JUNCTION MOSUNNY   47  19  33 CALM      30.33F
RIFLE          MOSUNNY   47  21  35 CALM      30.33F
MONTROSE       MOSUNNY   49  20  31 CALM      30.34F
CORTEZ         SUNNY     48  24  39 SW13      30.27F
PAGE, AZ       NOT AVBL
GRAND CANYON   SUNNY     54  21  27 NE17      30.32F
KINGMAN        SUNNY     66  24  20 N21       30.18F
FLAGSTAFF      SUNNY     53  21  28 E21G28    30.30F

$$

REGIONAL REPORTS    NEVADA/IDAHO/WYOMING

CITY           SKY/WX    TMP DP  RH WIND       PRES   REMARKS
LAS VEGAS, NV  SUNNY     70  31  23 VRB3      30.16F
ELY            SUNNY     53  31  42 N12       30.38F
ELKO           SUNNY     52  32  46 N3        30.40F
POCATELLO, ID  PTSUNNY   40  34  79 VRB3      30.43F
BURLEY         MOSUNNY   49  34  56 NE7       30.39F
EVANSTON, WY   MOSUNNY   43  31  62 SW6       30.41F
ROCK SPRINGS   PTSUNNY   46  29  51 W24G31    30.29F
KEMMERER       MOSUNNY   41  32  70 W18G25    30.39S

$$



USA.gov is the U.S. government's official web portal to all federal, state and local government web resources and services.